Change the Weather History Date:

Wednesday, October 19, 2011

  Actual Average Record
Temperature  
Mean Temperature 64 °F -  
Max Temperature 69 °F 61 °F 77 °F (2007)
Min Temperature 60 °F 45 °F 33 °F (2001)
Growing Degree Days 14 (Base 50)    
Moisture  
Dew Point 62 °F    
Average Humidity 95    
Maximum Humidity 100    
Minimum Humidity 82    
Precipitation  
Precipitation 0.15 in - - ()
Sea Level Pressure  
Sea Level Pressure 29.57 in    
Wind  
Wind Speed 4 mph (ENE)    
Max Wind Speed 17 mph    
Max Gust Speed 22 mph    
Visibility 6 miles    
Events Rain    
Averages and records for this station are not official NWS values.
T = Trace of Precipitation, MM = Missing Value Source: NWS Daily Summary

Daily Weather History Graph

Daily Weather History Graph

Search for Another Location

Airport or City:

Trip Planner

Search our weather history database for the weather conditions in past years. The results will help you decide how hot, cold, wet, or windy it might be!

Date:

Astronomy

Oct. 19, 2011 Rise Set
Actual Time 7:19 AM EDT 6:21 PM EDT
Civil Twilight 6:52 AM EDT 6:48 PM EDT
Nautical Twilight 6:20 AM EDT 7:19 PM EDT
Astronomical Twilight 5:49 AM EDT 7:50 PM EDT
Moon No Moon Rise 1:47 PM EDT (10/19)
Length of Visible Light 11h 56m
Length of Day
11h 02m
Waning Gibbous, 55% of the Moon is Illuminated
Oct 19
Waning Gibbous
Oct 19
Last Quarter
Oct 26
New
Nov 2
First Quarter
Nov 10
Full

Hourly Weather History & Observations

Time (EDT) Temp. Dew Point Humidity Pressure Visibility Wind Dir Wind Speed Gust Speed Precip Events Conditions
12:06 AM 60.8 °F 55.4 °F 82% 29.79 in 10.0 mi NNW 3.5 mph - N/A   Clear
12:27 AM 60.8 °F 55.4 °F 82% 29.79 in 10.0 mi Calm Calm - N/A   Clear
12:45 AM 60.8 °F 55.4 °F 82% 29.77 in 10.0 mi NE 4.6 mph - N/A   Clear
1:06 AM 60.8 °F 55.4 °F 82% 29.77 in 10.0 mi Calm Calm - N/A   Clear
1:24 AM 60.8 °F 55.4 °F 82% 29.76 in 10.0 mi Calm Calm - N/A   Clear
1:42 AM 60.8 °F 55.4 °F 82% 29.77 in 10.0 mi NNE 3.5 mph - N/A   Clear
2:03 AM 60.8 °F 57.2 °F 88% 29.77 in 10.0 mi East 3.5 mph - N/A   Clear
2:21 AM 60.8 °F 59.0 °F 94% 29.75 in 10.0 mi NNE 4.6 mph - N/A   Clear
2:42 AM 60.8 °F 59.0 °F 94% 29.74 in 7.0 mi NNE 3.5 mph - N/A   Mostly Cloudy
3:00 AM 60.8 °F 60.8 °F 100% 29.75 in 7.0 mi Calm Calm - N/A Rain Light Rain
3:21 AM 60.8 °F 60.8 °F 100% 29.75 in 7.0 mi Calm Calm - N/A Rain Light Rain
3:39 AM 60.8 °F 60.8 °F 100% 29.75 in 4.0 mi Calm Calm - 0.02 in Rain Rain
4:00 AM 60.8 °F 60.8 °F 100% 29.73 in 3.0 mi Calm Calm - N/A Rain Light Rain
4:18 AM 60.8 °F 60.8 °F 100% 29.72 in 2.5 mi NNE 4.6 mph - 0.03 in Rain Rain
4:39 AM 60.8 °F 60.8 °F 100% 29.69 in 2.0 mi North 4.6 mph - 0.08 in Rain Rain
4:57 AM 62.6 °F 62.6 °F 100% 29.69 in 3.0 mi Calm Calm - N/A Rain Rain
5:15 AM 62.6 °F 62.6 °F 100% 29.67 in 3.0 mi NNW 4.6 mph - 0.02 in Rain Rain
5:30 AM 62.6 °F 62.6 °F 100% 29.65 in 4.0 mi North 4.6 mph - 0.05 in Rain Rain
5:55 AM 62.6 °F 62.6 °F 100% 29.64 in 5.0 mi North 6.9 mph - N/A Rain Rain
6:50 AM 62.6 °F 59.0 °F 88% 29.68 in 5.0 mi East 5.8 mph - N/A   Drizzle
7:50 AM 62.6 °F 59.0 °F 88% 29.66 in 5.0 mi Calm Calm - N/A   Drizzle
8:55 AM 62.6 °F 59.0 °F 88% 29.65 in 3.0 mi ENE 6.9 mph - N/A   Drizzle
9:55 AM 60.8 °F 59.0 °F 94% 29.61 in 4.0 mi NNE 6.9 mph - N/A   Light Drizzle
10:45 AM 60.8 °F 59.0 °F 94% 29.58 in 7.0 mi NNE 5.8 mph - N/A   Overcast
11:55 AM 64.4 °F 62.6 °F 94% 29.52 in 5.0 mi NNE 6.9 mph - N/A   Overcast
12:50 PM 64.4 °F 62.6 °F 94% 29.49 in 2.0 mi NE 11.5 mph 21.9 mph N/A Rain Light Rain
1:45 PM 64.4 °F 62.6 °F 94% 29.46 in 2.5 mi NE 6.9 mph 20.7 mph N/A Rain Light Rain
3:55 PM 66.2 °F 66.2 °F 100% 29.41 in 4.0 mi ENE 8.1 mph - N/A   Overcast
4:55 PM 66.2 °F 66.2 °F 100% 29.39 in 4.0 mi ENE 9.2 mph - N/A   Overcast
5:45 PM 66.2 °F 66.2 °F 100% 29.37 in 3.0 mi ENE 9.2 mph 16.1 mph N/A   Drizzle
6:50 PM 66.2 °F 66.2 °F 100% 29.33 in 3.0 mi ENE 9.2 mph 16.1 mph N/A Rain Light Rain
7:45 PM 66.2 °F 66.2 °F 100% 29.31 in 3.0 mi ENE 8.1 mph - N/A Rain Rain
8:45 PM 66.2 °F 66.2 °F 100% 29.30 in 3.0 mi ENE 6.9 mph - N/A   Drizzle
9:45 PM 68.0 °F 68.0 °F 100% 29.30 in 4.0 mi ESE 5.8 mph - N/A   Light Drizzle
10:18 PM 69.8 °F 69.8 °F 100% 29.29 in 7.0 mi ESE 10.4 mph - N/A   Mostly Cloudy
10:39 PM 69.8 °F 69.8 °F 100% 29.28 in 10.0 mi SE 17.3 mph 20.7 mph N/A   Overcast
10:57 PM 69.8 °F 69.8 °F 100% 29.28 in 7.0 mi SE 15.0 mph - N/A   Overcast
11:18 PM 69.8 °F 69.8 °F 100% 29.29 in 7.0 mi SSE 13.8 mph - N/A   Overcast
11:36 PM 69.8 °F 69.8 °F 100% 29.29 in 7.0 mi SE 11.5 mph - N/A   Overcast
11:57 PM 69.8 °F 69.8 °F 100% 29.28 in 7.0 mi ESE 10.4 mph 17.3 mph N/A   Mostly Cloudy